Terminal Aerodrome Forecast
Issued by NWS

Home | Current Version | Previous Version | Text Only | Print | Product List | Glossary On
Versions: 1 2 3 4 5 6 7 8 9 10 11 12 13 14 15 16 17
000
FTUS45 KTFX 072324
TAFHLN
TAF
KHLN 072324Z 0800/0824 01010KT P6SM VCTS SCT070CB BKN100
      TEMPO 0800/0802 VRB20G30KT TSRA BKN050CB
     FM080200 36007KT P6SM BKN120
     FM080800 29005KT P6SM SCT080=

USA.gov is the U.S. government's official web portal to all federal, state and local government web resources and services.